Time,TemperatureF,DewpointF,PressureIn,WindDirection,WindDirectionDegrees,WindSpeedMPH,WindSpeedGustMPH,Humidity,HourlyPrecipIn,Conditions,Clouds,dailyrainin,SoftwareType,DateUTC
2013-03-31 01:00:00,78.0,71.0,30.18,West,280,8.0,-999.0,80,-99.99,,,-99.99,,2013-03-31 01:00:00,
2013-03-31 01:21:00,78.0,71.0,30.18,West,280,8.0,-999.0,80,-99.99,,,-99.99,,2013-03-31 01:21:00,
2013-03-31 01:31:00,78.0,71.0,30.18,West,280,8.0,-999.0,80,-99.99,,,-99.99,,2013-03-31 01:31:00,
2013-03-31 01:41:00,78.0,71.0,30.18,West,280,8.0,-999.0,80,-99.99,,,-99.99,,2013-03-31 01:41:00,
2013-03-31 01:52:00,78.0,71.0,30.18,West,280,8.0,-999.0,80,-99.99,,,-99.99,,2013-03-31 01:52:00,
2013-03-31 02:11:00,78.0,72.0,30.18,West,280,11.0,-999.0,82,-99.99,,,-99.99,,2013-03-31 02:11:00,
2013-03-31 02:21:00,78.0,72.0,30.18,West,280,11.0,-999.0,82,-99.99,,,-99.99,,2013-03-31 02:21:00,
2013-03-31 02:31:00,78.0,72.0,30.18,West,280,11.0,-999.0,82,-99.99,,,-99.99,,2013-03-31 02:31:00,
2013-03-31 02:42:00,78.0,72.0,30.18,West,280,11.0,-999.0,82,-99.99,,,-99.99,,2013-03-31 02:42:00,
2013-03-31 02:51:00,78.0,72.0,30.18,West,280,11.0,-999.0,82,-99.99,,,-99.99,,2013-03-31 02:51:00,
2013-03-31 03:00:00,78.0,-99.9,30.17,WNW,290,8.0,-999.0,82,-99.99,,,-99.99,,2013-03-31 03:00:00,
2013-03-31 03:11:00,78.0,72.0,30.17,WNW,290,8.0,-999.0,82,-99.99,,,-99.99,,2013-03-31 03:11:00,
2013-03-31 03:21:00,78.0,72.0,30.17,WNW,290,8.0,-999.0,82,-99.99,,,-99.99,,2013-03-31 03:21:00,
2013-03-31 03:32:00,78.0,72.0,30.17,WNW,290,8.0,-999.0,82,-99.99,,,-99.99,,2013-03-31 03:32:00,
2013-03-31 03:42:00,78.0,72.0,30.17,WNW,290,8.0,-999.0,82,-99.99,,,-99.99,,2013-03-31 03:42:00,
2013-03-31 03:53:00,78.0,72.0,30.17,WNW,290,8.0,-999.0,82,-99.99,,,-99.99,,2013-03-31 03:53:00,
2013-03-31 05:12:00,78.0,73.0,30.13,West,270,8.0,-999.0,85,-99.99,,,-99.99,,2013-03-31 05:12:00,
2013-03-31 05:22:00,78.0,73.0,30.13,West,270,8.0,-999.0,85,-99.99,,,-99.99,,2013-03-31 05:22:00,
2013-03-31 05:32:00,78.0,73.0,30.13,West,270,8.0,-999.0,85,-99.99,,,-99.99,,2013-03-31 05:32:00,
2013-03-31 05:41:00,78.0,73.0,30.13,West,270,8.0,-999.0,85,-99.99,,,-99.99,,2013-03-31 05:41:00,
2013-03-31 05:52:00,78.0,73.0,30.13,West,270,8.0,-999.0,85,-99.99,,,-99.99,,2013-03-31 05:52:00,
2013-03-31 06:00:00,78.0,70.0,30.12,WNW,300,10.0,-999.0,78,-99.99,,,-99.99,,2013-03-31 06:00:00,
2013-03-31 06:11:00,78.0,70.0,30.12,WNW,300,10.0,-999.0,78,-99.99,,,-99.99,,2013-03-31 06:11:00,
2013-03-31 06:21:00,78.0,70.0,30.12,WNW,300,10.0,-999.0,78,-99.99,,,-99.99,,2013-03-31 06:21:00,
2013-03-31 06:32:00,78.0,70.0,30.12,WNW,300,10.0,-999.0,78,-99.99,,,-99.99,,2013-03-31 06:32:00,
2013-03-31 06:42:00,78.0,70.0,30.12,WNW,300,10.0,-999.0,78,-99.99,,,-99.99,,2013-03-31 06:42:00,
2013-03-31 06:52:00,78.0,70.0,30.12,WNW,300,10.0,-999.0,78,-99.99,,,-99.99,,2013-03-31 06:52:00,
2013-03-31 07:00:00,77.0,71.0,30.13,NNW,330,10.0,-999.0,82,-99.99,,,-99.99,,2013-03-31 07:00:00,
2013-03-31 07:42:00,77.0,71.0,30.13,NNW,330,10.0,-999.0,82,-99.99,,,-99.99,,2013-03-31 07:42:00,
2013-03-31 07:52:00,77.0,71.0,30.13,NNW,330,10.0,-999.0,82,-99.99,,,-99.99,,2013-03-31 07:52:00,
2013-03-31 08:00:00,78.0,73.0,30.14,NNW,340,10.0,-999.0,85,-99.99,,,-99.99,,2013-03-31 08:00:00,
2013-03-31 08:11:00,78.0,73.0,30.14,NNW,340,10.0,-999.0,85,-99.99,,,-99.99,,2013-03-31 08:11:00,
2013-03-31 08:21:00,78.0,73.0,30.14,NNW,340,10.0,-999.0,85,-99.99,,,-99.99,,2013-03-31 08:21:00,
2013-03-31 08:31:00,78.0,73.0,30.14,NNW,340,10.0,-999.0,85,-99.99,,,-99.99,,2013-03-31 08:31:00,
2013-03-31 08:41:00,78.0,73.0,30.14,NNW,340,10.0,-999.0,85,-99.99,,,-99.99,,2013-03-31 08:41:00,
2013-03-31 08:51:00,78.0,73.0,30.14,NNW,340,10.0,-999.0,85,-99.99,,,-99.99,,2013-03-31 08:51:00,
2013-03-31 09:00:00,78.0,71.0,30.14,NE,40,11.0,-999.0,79,-99.99,,,-99.99,,2013-03-31 09:00:00,
2013-03-31 09:11:00,78.0,71.0,30.14,NE,40,11.0,-999.0,79,-99.99,,,-99.99,,2013-03-31 09:11:00,
2013-03-31 09:21:00,78.0,71.0,30.14,NE,40,11.0,-999.0,79,-99.99,,,-99.99,,2013-03-31 09:21:00,
2013-03-31 09:32:00,78.0,71.0,30.14,NE,40,11.0,-999.0,79,-99.99,,,-99.99,,2013-03-31 09:32:00,
2013-03-31 09:42:00,78.0,71.0,30.14,NE,40,11.0,-999.0,79,-99.99,,,-99.99,,2013-03-31 09:42:00,
2013-03-31 09:52:00,78.0,71.0,30.14,NE,40,11.0,-999.0,79,-99.99,,,-99.99,,2013-03-31 09:52:00,
2013-03-31 10:00:00,78.0,71.0,30.15,NNE,30,11.0,-999.0,80,-99.99,,,-99.99,,2013-03-31 10:00:00,
2013-03-31 10:12:00,78.0,71.0,30.15,NNE,30,11.0,-999.0,80,-99.99,,,-99.99,,2013-03-31 10:12:00,
2013-03-31 10:22:00,78.0,71.0,30.15,NNE,30,11.0,-999.0,80,-99.99,,,-99.99,,2013-03-31 10:22:00,
2013-03-31 10:32:00,78.0,71.0,30.15,NNE,30,11.0,-999.0,80,-99.99,,,-99.99,,2013-03-31 10:32:00,
2013-03-31 10:41:00,78.0,71.0,30.15,NNE,30,11.0,-999.0,80,-99.99,,,-99.99,,2013-03-31 10:41:00,
2013-03-31 10:52:00,78.0,71.0,30.15,NNE,30,11.0,-999.0,80,-99.99,,,-99.99,,2013-03-31 10:52:00,
2013-03-31 20:00:00,80.0,71.0,30.15,NE,40,11.0,-999.0,73,-99.99,,,-99.99,,2013-03-31 20:00:00,
2013-03-31 20:42:00,80.0,71.0,30.15,NE,40,11.0,-999.0,73,-99.99,,,-99.99,,2013-03-31 20:42:00,
2013-03-31 21:00:00,78.0,70.0,30.16,NNE,30,11.0,-999.0,76,-99.99,,,-99.99,,2013-03-31 21:00:00,
2013-03-31 21:21:00,78.0,70.0,30.16,NNE,30,11.0,-999.0,76,-99.99,,,-99.99,,2013-03-31 21:21:00,
2013-03-31 21:33:00,78.0,70.0,30.16,NNE,30,11.0,-999.0,76,-99.99,,,-99.99,,2013-03-31 21:33:00,
2013-03-31 21:42:00,78.0,70.0,30.16,NNE,30,11.0,-999.0,76,-99.99,,,-99.99,,2013-03-31 21:42:00,
2013-03-31 21:52:00,78.0,70.0,30.16,NNE,30,11.0,-999.0,76,-99.99,,,-99.99,,2013-03-31 21:52:00,
2013-03-31 22:00:00,78.0,69.0,30.17,NNE,30,13.0,-999.0,73,-99.99,,,-99.99,,2013-03-31 22:00:00,
2013-03-31 22:32:00,78.0,69.0,30.17,NNE,30,13.0,-999.0,73,-99.99,,,-99.99,,2013-03-31 22:32:00,
2013-03-31 22:42:00,78.0,69.0,30.17,NNE,30,13.0,-999.0,73,-99.99,,,-99.99,,2013-03-31 22:42:00,
2013-03-31 22:52:00,78.0,69.0,30.17,NNE,30,13.0,-999.0,73,-99.99,,,-99.99,,2013-03-31 22:52:00,
2013-03-31 23:00:00,78.0,69.0,30.19,NE,40,14.0,-999.0,74,-99.99,,,-99.99,,2013-03-31 23:00:00,
2013-03-31 23:12:00,78.0,69.0,30.19,NE,40,14.0,-999.0,74,-99.99,,,-99.99,,2013-03-31 23:12:00,
2013-03-31 23:21:00,78.0,69.0,30.19,NE,40,14.0,-999.0,74,-99.99,,,-99.99,,2013-03-31 23:21:00,
2013-03-31 23:31:00,78.0,69.0,30.19,NE,40,14.0,-999.0,74,-99.99,,,-99.99,,2013-03-31 23:31:00,
2013-03-31 23:41:00,78.0,69.0,30.19,NE,40,14.0,-999.0,74,-99.99,,,-99.99,,2013-03-31 23:41:00,
2013-03-31 23:52:00,78.0,69.0,30.19,NE,40,14.0,-999.0,74,-99.99,,,-99.99,,2013-03-31 23:52:00,